Raleigh-Durham Airport, NC

8:21 AM EST on January 17, 2018 (GMT -0500)
Raleigh-Durham International

Weather History for KRDU - August, 2013

Change the Weather History Date:

Friday, August 30, 2013

  Actual Average Record
Temperature  
Mean Temperature 77 °F 77 °F  
Max Temperature 88 °F 87 °F 103 °F (1932)
Min Temperature 65 °F 67 °F 46 °F (1965)
Degree Days  
Heating Degree Days 0 0  
Month to date heating degree days 0 0  
Since 1 June heating degree days 0 4  
Since 1 July heating degree days 0 0  
Cooling Degree Days 12 12  
Month to date cooling degree days 337 408  
Year to date cooling degree days 1292 1430  
Since 1 June cooling degree days 1114 1221  
Growing Degree Days 26 (Base 50)    
Moisture  
Dew Point 65 °F    
Average Humidity 70    
Maximum Humidity 100    
Minimum Humidity 40    
Precipitation  
Precipitation 0.00 in 0.13 in 2.99 in (1959)
Month to date precipitation 4.88 4.12  
Year to date precipitation 37.47 29.40  
Sea Level Pressure  
Sea Level Pressure 30.01 in    
Wind  
Wind Speed 3 mph (East)    
Max Wind Speed 8 mph    
Max Gust Speed 15 mph    
Visibility 9 miles    
Events      
T = Trace of Precipitation, MM = Missing Value Source: NWS Daily Summary

Daily Weather History Graph

Daily Weather History Graph

Search for Another Location

Airport or City:

Trip Planner

Search our weather history database for the weather conditions in past years. The results will help you decide how hot, cold, wet, or windy it might be!

Date:

Astronomy

Aug. 30, 2013 Rise Set
Actual Time 6:45 AM EDT 7:45 PM EDT
Civil Twilight 6:19 AM EDT 8:11 PM EDT
Nautical Twilight 5:48 AM EDT 8:42 PM EDT
Astronomical Twilight 5:16 AM EDT 9:14 PM EDT
Moon 1:28 AM EDT (8/30) 3:53 PM EDT (8/30)
Length of Visible Light 13h 51m
Length of Day
12h 59m
Waning Crescent, 29% of the Moon is Illuminated
Aug 30
Waning Crescent
Sep 5
New
Sep 12
First Quarter
Sep 19
Full
Sep 26
Last Quarter

Hourly Weather History & Observations

Time (EDT) Temp. Heat Index Dew Point Humidity Pressure Visibility Wind Dir Wind Speed Gust Speed Precip Events Conditions
12:51 AM 72.0 °F - 68.0 °F 87% 30.02 in 10.0 mi East 5.8 mph - N/A   Partly Cloudy
1:51 AM 69.1 °F - 66.9 °F 93% 30.02 in 10.0 mi NE 5.8 mph - N/A   Partly Cloudy
2:51 AM 69.1 °F - 66.9 °F 93% 30.01 in 8.0 mi Calm Calm - N/A   Partly Cloudy
3:38 AM 68.0 °F - 66.2 °F 94% 30.03 in 7.0 mi Calm Calm - N/A   Mostly Cloudy
3:51 AM 68.0 °F - 66.9 °F 96% 30.02 in 7.0 mi Calm Calm - N/A   Mostly Cloudy
4:51 AM 69.1 °F - 66.9 °F 93% 30.02 in 8.0 mi East 4.6 mph - N/A   Mostly Cloudy
5:05 AM 69.8 °F - 66.2 °F 88% 30.04 in 8.0 mi Calm Calm - N/A   Partly Cloudy
5:51 AM 66.9 °F - 66.0 °F 97% 30.04 in 6.0 mi Calm Calm - N/A   Partly Cloudy
6:51 AM 64.9 °F - 64.9 °F 100% 30.04 in 5.0 mi Calm Calm - N/A   Partly Cloudy
7:21 AM 66.2 °F - 66.2 °F 100% 30.07 in 5.0 mi NE 4.6 mph - N/A   Scattered Clouds
7:51 AM 68.0 °F - 66.0 °F 93% 30.06 in 6.0 mi ENE 5.8 mph - N/A   Scattered Clouds
8:14 AM 68.0 °F - 66.2 °F 94% 30.08 in 6.0 mi East 6.9 mph - N/A   Mostly Cloudy
8:51 AM 70.0 °F - 66.0 °F 87% 30.07 in 10.0 mi East 5.8 mph - N/A   Scattered Clouds
9:51 AM 73.9 °F - 66.0 °F 76% 30.07 in 10.0 mi East 3.5 mph - N/A   Scattered Clouds
10:51 AM 77.0 °F - 66.0 °F 69% 30.06 in 10.0 mi Calm Calm - N/A   Mostly Cloudy
11:51 AM 79.0 °F - 64.9 °F 62% 30.05 in 10.0 mi Calm Calm - N/A   Scattered Clouds
12:51 PM 82.0 °F 83.8 °F 64.9 °F 56% 30.04 in 10.0 mi Calm Calm - N/A   Scattered Clouds
1:51 PM 84.9 °F 86.6 °F 64.9 °F 51% 30.01 in 10.0 mi Variable 4.6 mph - N/A   Scattered Clouds
2:51 PM 86.0 °F 87.3 °F 64.0 °F 48% 29.99 in 10.0 mi Calm Calm - N/A   Scattered Clouds
3:51 PM 87.1 °F 87.5 °F 62.1 °F 43% 29.97 in 10.0 mi Variable 3.5 mph - N/A   Scattered Clouds
4:51 PM 87.1 °F 87.0 °F 61.0 °F 41% 29.96 in 10.0 mi ESE 4.6 mph - N/A   Scattered Clouds
5:51 PM 86.0 °F 86.1 °F 61.0 °F 43% 29.95 in 10.0 mi ESE 3.5 mph - N/A   Scattered Clouds
6:51 PM 82.9 °F 84.4 °F 64.0 °F 53% 29.95 in 10.0 mi East 5.8 mph - N/A   Mostly Cloudy
7:51 PM 80.1 °F 81.9 °F 64.9 °F 60% 29.96 in 10.0 mi SE 4.6 mph - N/A   Scattered Clouds
8:51 PM 78.1 °F - 66.0 °F 66% 29.97 in 10.0 mi Variable 3.5 mph - N/A   Scattered Clouds
9:51 PM 75.0 °F - 66.0 °F 73% 29.97 in 10.0 mi SSE 4.6 mph - N/A   Partly Cloudy
10:51 PM 75.0 °F - 64.9 °F 71% 29.97 in 10.0 mi South 5.8 mph - N/A   Partly Cloudy
11:51 PM 73.9 °F - 64.9 °F 73% 29.97 in 10.0 mi South 4.6 mph - N/A   Partly Cloudy